Weather Service Report


934 
ASCA44 KEWX 222120
RWRMX 

LATIN AMERICA AND CARIBBEAN REGIONAL WEATHER ROUNDUP
NATIONAL WEATHER SERVICE AUSTIN/SAN ANTONIO TX
400 PM CDT TUE JUL 22 2014

NOTE: "FAIR" INDICATED FEW OR NO CLOUDS BELOW 12,000 FEET WITH NO
SIGNIFICANT WEATHER AND/OR OBSTRUCTIONS TO VISIBILITY.

BAJA CALIFORNIA
  
CITY           SKY/WX    TMP DP  RH WIND       PRES   REMARKS
LORETO         MOSUNNY   95  70  43 NE7       29.83F HX 101           
LA PAZ         SUNNY    100  55  22 N12       29.86  HX  99           
MEXICALI       SUNNY    108  37   9 NE6       29.85  HX 101           
S.J. DEL CABO  MOSUNNY   95  70  43 SE17      29.88F HX 101           
TIJUANA        SUNNY     77  59  53 NW14      30.05F                  

NORTHWESTERN MEXICO
  
CITY           SKY/WX    TMP DP  RH WIND       PRES   REMARKS
CULIACAN       MOSUNNY  102  75  42 W5        29.83  HX 116           
DURANGO        PTSUNNY   82  43  24 NE6       30.28F                  
GUAYMAS        SUNNY     95  82  66 S18       29.79  HX 119           
HERMOSILLO     MOSUNNY  106  64  26 N3        29.87  HX 110           
CD. JUAREZ     MOSUNNY  100  63  28 CALM      30.05  HX 102           
LOS MOCHIS     MOSUNNY   95  75  52 SW15      29.84F HX 107           
OBREGON        MOSUNNY  102  64  29 SE2       29.81  HX 105           

NORTHEASTERN MEXICO
  
CITY           SKY/WX    TMP DP  RH WIND       PRES   REMARKS
CHIHUAHUA      PTSUNNY   91  54  27 W9        30.17                   
MATAMOROS      MOSUNNY   95  77  55 SE14      29.99  HX 109           
MONCLOVA       PTSUNNY   97  57  26 N6        30.00F HX  95           
MONTERREY      MOSUNNY   99  57  25 SE12      29.95F HX  97           
NUEVO LAREDO   PTSUNNY  104  73  37 CALM      29.95  HX 116           
PIEDRAS NEGRAS MOSUNNY   95  75  52 SE9       30.00F HX 107           
REYNOSA        MOSUNNY   97  66  36 SE12      29.93  HX 100           
SALTILLO       PTSUNNY   90  68  48 N12       30.20F HX  93           
TORREON        PTSUNNY   93  54  26 NE9       30.10F HX  91           
CD. VICTORIA   SUNNY     95  63  34 S9G22     29.96  HX  96           

WESTERN MEXICO
  
CITY           SKY/WX    TMP DP  RH WIND       PRES   REMARKS
AGUASCALIENTES SUNNY     79  36  21 NE12      30.28                   
COLIMA         MOSUNNY   84  68  58 SW12      30.00F                  
DEL BAJIO      MOSUNNY   82  50  32 CALM      30.29F                  
GUADALAJARA    MOSUNNY   84  52  32 N10       30.16                   
MANZANILLO     MOSUNNY   90  77  66 SW12      29.82F HX 102           
MAZATLAN       MOSUNNY   91  73  55 SW14      29.84F HX 100           
P. VALLARTA    SUNNY     91  79  66 S7        29.89F HX 107           
URUAPAN        PTSUNNY   73  63  68 W12       30.21S THUNDER          
ZACATECAS      MOSUNNY   77  41  27 NE16      30.35F                  

CENTRAL MEXICO
  
CITY           SKY/WX    TMP DP  RH WIND       PRES   REMARKS
CUERNAVACA     MOSUNNY   82  57  42 W5        30.11F                  
MEXICO CITY    MOSUNNY   79  43  27 E9        30.31F                  
MORELIA        MOSUNNY   82  55  39 N6        30.22                   
POZA RICA      PTSUNNY   93  77  59 E9        30.01F HX 107           
PUEBLA         PTSUNNY   77  41  27 E3        30.34F                  
QUERETARO      MOSUNNY   82  54  36 NE14      30.31F                  
S. LUIS POTOSI MOSUNNY   81  43  26 E14       30.28F                  
TAMPICO        SUNNY     90  70  51 SE18      29.98F HX  95           
TOLUCA         MOSUNNY   73  36  25 E10       30.42S                  

SOUTHERN MEXICO
  
CITY           SKY/WX    TMP DP  RH WIND       PRES   REMARKS
ACAPULCO       MOSUNNY   90  81  74 W10       29.81F HX 108           
B. DE HUATULCO MOSUNNY   91  77  62 W16       29.85  HX 105           
OAXACA         PTSUNNY   82  48  30 E14       30.19F                  
P. ESCONDIDO   SUNNY     88  77  70 SW9       29.97F HX 100           
VERACRUZ       SUNNY     90  72  55 E10       29.96F HX  96           
ZIHUATANEJO    SUNNY     91  77  62 W12       29.84F HX 105           

YUCATAN PENINSULA
  
CITY           SKY/WX    TMP DP  RH WIND       PRES   REMARKS
CAMPECHE       PTSUNNY   88  81  79 W7        29.90F HX 105           
CANCUN         PTSUNNY   90  72  55 SE13      30.01F HX  96           
CHETUMAL       MOSUNNY   88  77  70 E12       29.94  HX 100           
CD. DEL CARMEN MOSUNNY   91  72  52 E12       29.92  HX  98           
COZUMEL        MOSUNNY   88  73  62 SE14      30.00F HX  96           
MERIDA         MOSUNNY   95  66  38 SE9       29.94F HX  98           
MINATITLAN     MOSUNNY   88  75  66 N8G21     29.90  HX  97           
TAPACHULA      PTSUNNY   90  81  74 SW8       29.83F HX 108           
TUX. GUTIERREZ MOSUNNY   90  70  51 NW13      29.90F HX  95           
VILLAHERMOSA   MOSUNNY   95  66  38 E14       29.93F HX  98           

CENTRAL AMERICA
  
CITY           SKY/WX    TMP DP  RH WIND       PRES   REMARKS
BELIZE CITY    MOSUNNY   90  75  62 E12       29.95F HX 100           
MANAGUA        MOCLDY   N/A N/A N/A E12         N/A                   

CARIBBEAN
  
CITY           SKY/WX    TMP DP  RH WIND       PRES   REMARKS
ARUBA          MOSUNNY   88  77  70 E23       29.86F HX 100           
KINGSTON       MOSUNNY   88  73  62 SE28      29.89F HX  96           
NASSAU         LGT RAIN  88  79  74 S9        30.06F HX 102           
SAN JUAN       MOSUNNY   86  73  66 E14       30.03S HX  93           
SANTO DOMINGO  MOSUNNY   86  73  66 SE12      29.97S HX  93           
ST. CROIX      CLOUDY    86  72  62 E13       30.03F HX  92           
ST. KITTS      MOSUNNY   84  75  74 E16       30.03S HX  92           
ST. MAARTEN    MOSUNNY   84  73  70 E13       30.03S HX  91           
ST. THOMAS     PTSUNNY   86  77  74 SE14      30.03R HX  97           

$$


Return to Home page


Western Regional Climate Center, wrcc@dri.edu